| time (UTC) | temp F | wind direction | speed MPH | gust MPH | rain 1hr in | rain 24hr in | rain mn in | humidity % | barometer mb |
| 20260505025010 | 69 | 0 | 0.0 | 0.0 | 0.00 | 0.00 | 0.00 | 68 | 1005.0 |
| 20260505024528 | 69 | 0 | 0.0 | 0.0 | 0.00 | 0.00 | 0.00 | 68 | 1004.9 |
| 20260505024012 | 69 | 0 | 0.0 | 1.0 | 0.00 | 0.00 | 0.00 | 68 | 1004.9 |
| 20260505023511 | 69 | 0 | 0.0 | 1.0 | 0.00 | 0.00 | 0.00 | 68 | 1004.8 |
| 20260505023032 | 69 | 0 | 0.0 | 1.0 | 0.00 | 0.00 | 0.00 | 69 | 1004.7 |
| 20260505022509 | 69 | 0 | 0.0 | 1.0 | 0.00 | 0.00 | 0.00 | 68 | 1004.7 |
| 20260505022010 | 69 | 0 | 0.0 | 1.0 | 0.00 | 0.00 | 0.00 | 69 | 1004.6 |
| 20260505021529 | 69 | 0 | 0.0 | 0.0 | 0.00 | 0.00 | 0.00 | 69 | 1004.6 |
| 20260505021009 | 69 | 0 | 0.0 | 0.0 | 0.00 | 0.00 | 0.00 | 69 | 1004.6 |
| 20260505020510 | 69 | 0 | 0.0 | 0.0 | 0.00 | 0.00 | 0.00 | 68 | 1004.4 |
| 20260505020036 | 69 | 0 | 0.0 | 0.0 | 0.00 | 0.00 | 0.00 | 68 | 1004.3 |
| 20260505015511 | 69 | 0 | 0.0 | 0.0 | 0.00 | 0.00 | 0.00 | 68 | 1004.3 |
| 20260505015013 | 70 | 0 | 0.0 | 0.0 | 0.00 | 0.00 | 0.00 | 67 | 1004.2 |
| 20260505014528 | 70 | 0 | 0.0 | 0.0 | 0.00 | 0.00 | 0.00 | 67 | 1004.0 |
| 20260505014010 | 70 | 0 | 0.0 | 0.0 | 0.00 | 0.00 | 0.00 | 67 | 1004.0 |
| 20260505013510 | 70 | 0 | 0.0 | 0.0 | 0.00 | 0.00 | 0.00 | 66 | 1003.9 |
| 20260505013029 | 70 | 0 | 0.0 | 0.0 | 0.00 | 0.00 | 0.00 | 66 | 1003.8 |
| 20260505012512 | 71 | 0 | 0.0 | 0.0 | 0.00 | 0.00 | 0.00 | 65 | 1003.7 |
| 20260505012010 | 71 | 0 | 0.0 | 0.0 | 0.00 | 0.00 | 0.00 | 64 | 1003.8 |
| 20260505011528 | 71 | 0 | 0.0 | 0.0 | 0.00 | 0.00 | 0.00 | 64 | 1003.7 |
| 20260505011010 | 72 | 0 | 0.0 | 0.0 | 0.00 | 0.00 | 0.00 | 63 | 1003.7 |
| 20260505010510 | 72 | 0 | 0.0 | 0.0 | 0.00 | 0.00 | 0.00 | 62 | 1003.6 |
| 20260505010032 | 73 | 0 | 0.0 | 0.0 | 0.00 | 0.00 | 0.00 | 62 | 1003.6 |
| 20260505005509 | 73 | 0 | 0.0 | 0.0 | 0.00 | 0.00 | 0.00 | 61 | 1003.6 |
| 20260505005010 | 74 | 0 | 0.0 | 0.0 | 0.00 | 0.00 | 0.00 | 60 | 1003.6 |
| 20260505004531 | 74 | 0 | 0.0 | 0.0 | 0.00 | 0.00 | 0.00 | 60 | 1003.5 |
| 20260505004009 | 74 | 0 | 0.0 | 0.0 | 0.00 | 0.00 | 0.00 | 59 | 1003.6 |
| 20260505003509 | 75 | 0 | 0.0 | 0.0 | 0.00 | 0.00 | 0.00 | 58 | 1003.5 |
| 20260505003031 | 75 | 0 | 0.0 | 7.0 | 0.00 | 0.00 | 0.00 | 57 | 1003.5 |
| 20260505002511 | 75 | 0 | 1.0 | 7.0 | 0.00 | 0.00 | 0.00 | 57 | 1003.3 |
| 20260505002010 | 76 | 0 | 0.0 | 1.0 | 0.00 | 0.00 | 0.00 | 56 | 1003.4 |
| 20260505001528 | 76 | 0 | 0.0 | 1.0 | 0.00 | 0.00 | 0.00 | 56 | 1003.5 |
| 20260505001010 | 76 | 0 | 0.0 | 6.0 | 0.00 | 0.00 | 0.00 | 55 | 1003.5 |
| 20260505000509 | 76 | 0 | 0.0 | 6.0 | 0.00 | 0.00 | 0.00 | 55 | 1003.5 |
| 20260505000037 | 76 | 264 | 0.0 | 6.0 | 0.00 | 0.00 | 0.00 | 54 | 1003.3 |
| 20260504235511 | 76 | 245 | 0.0 | 13.0 | 0.00 | 0.00 | 0.00 | 54 | 1003.4 |
| 20260504235009 | 77 | 248 | 3.0 | 13.0 | 0.00 | 0.00 | 0.00 | 54 | 1003.3 |
| 20260504234533 | 77 | 236 | 3.0 | 13.0 | 0.00 | 0.00 | 0.00 | 54 | 1003.3 |
| 20260504234010 | 77 | 0 | 0.0 | 7.0 | 0.00 | 0.00 | 0.00 | 54 | 1003.3 |
| 20260504233509 | 77 | 0 | 0.0 | 8.0 | 0.00 | 0.00 | 0.00 | 54 | 1003.3 |
| 20260504233029 | 77 | 0 | 1.0 | 10.0 | 0.00 | 0.00 | 0.00 | 53 | 1003.3 |
| 20260504232510 | 77 | 220 | 2.0 | 10.0 | 0.00 | 0.00 | 0.00 | 53 | 1003.3 |
| 20260504232029 | 77 | 240 | 1.0 | 10.0 | 0.00 | 0.00 | 0.00 | 54 | 1003.3 |
| 20260504231533 | 78 | 227 | 0.0 | 13.0 | 0.00 | 0.00 | 0.00 | 52 | 1003.3 |
| 20260504231010 | 78 | 239 | 2.0 | 15.0 | 0.00 | 0.00 | 0.00 | 53 | 1003.3 |
| 20260504230511 | 78 | 220 | 5.0 | 15.0 | 0.00 | 0.00 | 0.00 | 50 | 1003.3 |
| 20260504230028 | 79 | 251 | 4.0 | 15.0 | 0.00 | 0.00 | 0.00 | 51 | 1003.3 |
| 20260504225510 | 79 | 224 | 3.0 | 13.0 | 0.00 | 0.00 | 0.00 | 50 | 1003.3 |
| 20260504225012 | 79 | 295 | 2.0 | 14.0 | 0.00 | 0.00 | 0.00 | 51 | 1003.2 |
| 20260504224532 | 79 | 242 | 4.0 | 14.0 | 0.00 | 0.00 | 0.00 | 50 | 1003.3 |
| 20260504224008 | 80 | 277 | 6.0 | 15.0 | 0.00 | 0.00 | 0.00 | 50 | 1003.3 |
| 20260504223511 | 79 | 280 | 4.0 | 16.0 | 0.00 | 0.00 | 0.00 | 51 | 1003.3 |
| 20260504223032 | 79 | 266 | 4.0 | 17.0 | 0.00 | 0.00 | 0.00 | 51 | 1003.3 |
| 20260504222510 | 79 | 272 | 5.0 | 17.0 | 0.00 | 0.00 | 0.00 | 50 | 1003.4 |
| 20260504222010 | 80 | 255 | 8.0 | 14.0 | 0.00 | 0.00 | 0.00 | 49 | 1003.3 |
| 20260504221530 | 80 | 277 | 5.0 | 19.0 | 0.00 | 0.00 | 0.00 | 49 | 1003.3 |
| 20260504221009 | 80 | 240 | 6.0 | 19.0 | 0.00 | 0.00 | 0.00 | 50 | 1003.2 |
| 20260504220509 | 80 | 234 | 5.0 | 17.0 | 0.00 | 0.00 | 0.00 | 49 | 1003.2 |
| 20260504220029 | 80 | 288 | 3.0 | 19.0 | 0.00 | 0.00 | 0.00 | 51 | 1003.4 |
| 20260504215512 | 80 | 221 | 10.0 | 19.0 | 0.00 | 0.00 | 0.00 | 49 | 1003.3 |
| 20260504215011 | 80 | 250 | 8.0 | 19.0 | 0.00 | 0.00 | 0.00 | 47 | 1003.3 |
| 20260504214540 | 80 | 287 | 8.0 | 20.0 | 0.00 | 0.00 | 0.00 | 48 | 1003.3 |
| 20260504214014 | 80 | 217 | 8.0 | 20.0 | 0.00 | 0.00 | 0.00 | 48 | 1003.3 |
| 20260504213510 | 80 | 277 | 8.0 | 18.0 | 0.00 | 0.00 | 0.00 | 48 | 1003.3 |
| 20260504213030 | 80 | 270 | 10.0 | 18.0 | 0.00 | 0.00 | 0.00 | 47 | 1003.3 |
| 20260504212509 | 81 | 266 | 10.0 | 17.0 | 0.00 | 0.00 | 0.00 | 47 | 1003.5 |
| 20260504212008 | 81 | 269 | 3.0 | 16.0 | 0.00 | 0.00 | 0.00 | 49 | 1003.4 |
| 20260504211527 | 81 | 255 | 7.0 | 16.0 | 0.00 | 0.00 | 0.00 | 48 | 1003.3 |
| 20260504211011 | 81 | 257 | 5.0 | 16.0 | 0.00 | 0.00 | 0.00 | 48 | 1003.4 |
| 20260504210517 | 81 | 266 | 7.0 | 21.0 | 0.00 | 0.00 | 0.00 | 48 | 1003.3 |
| 20260504210027 | 80 | 233 | 8.0 | 21.0 | 0.00 | 0.00 | 0.00 | 48 | 1003.4 |
| 20260504205511 | 80 | 271 | 10.0 | 21.0 | 0.00 | 0.00 | 0.00 | 46 | 1003.5 |
| 20260504205012 | 81 | 270 | 9.0 | 22.0 | 0.00 | 0.00 | 0.00 | 48 | 1003.5 |
| 20260504204529 | 81 | 243 | 10.0 | 22.0 | 0.00 | 0.00 | 0.00 | 47 | 1003.5 |
| 20260504204009 | 81 | 226 | 9.0 | 22.0 | 0.00 | 0.00 | 0.00 | 46 | 1003.6 |
| 20260504203509 | 81 | 226 | 6.0 | 16.0 | 0.00 | 0.00 | 0.00 | 49 | 1003.6 |
| 20260504203031 | 81 | 282 | 4.0 | 15.0 | 0.00 | 0.00 | 0.00 | 50 | 1003.7 |
| 20260504202511 | 80 | 210 | 3.0 | 15.0 | 0.00 | 0.00 | 0.00 | 51 | 1003.7 |
| 20260504202010 | 79 | 226 | 6.0 | 14.0 | 0.00 | 0.00 | 0.00 | 54 | 1003.8 |
| 20260504201530 | 79 | 255 | 3.0 | 17.0 | 0.00 | 0.00 | 0.00 | 51 | 1003.9 |
| 20260504201008 | 79 | 243 | 8.0 | 20.0 | 0.00 | 0.00 | 0.00 | 51 | 1003.9 |
| 20260504200507 | 79 | 250 | 7.0 | 20.0 | 0.00 | 0.00 | 0.00 | 51 | 1003.9 |
| 20260504200033 | 78 | 256 | 9.0 | 20.0 | 0.00 | 0.00 | 0.00 | 49 | 1003.9 |
| 20260504195509 | 79 | 252 | 8.0 | 16.0 | 0.00 | 0.00 | 0.00 | 50 | 1004.0 |
| 20260504195011 | 79 | 231 | 2.0 | 15.0 | 0.00 | 0.00 | 0.00 | 52 | 1004.1 |
| 20260504194529 | 79 | 276 | 6.0 | 20.0 | 0.00 | 0.00 | 0.00 | 51 | 1004.1 |
| 20260504194010 | 79 | 262 | 9.0 | 20.0 | 0.00 | 0.00 | 0.00 | 49 | 1004.2 |
| 20260504193514 | 79 | 247 | 9.0 | 16.0 | 0.00 | 0.00 | 0.00 | 52 | 1004.2 |
| 20260504193027 | 79 | 264 | 5.0 | 17.0 | 0.00 | 0.00 | 0.00 | 52 | 1004.3 |
| 20260504192514 | 79 | 238 | 4.0 | 17.0 | 0.00 | 0.00 | 0.00 | 51 | 1004.3 |
| 20260504192009 | 79 | 218 | 10.0 | 17.0 | 0.00 | 0.00 | 0.00 | 50 | 1004.2 |
| 20260504191528 | 79 | 245 | 8.0 | 16.0 | 0.00 | 0.00 | 0.00 | 51 | 1004.3 |
| 20260504191013 | 78 | 215 | 7.0 | 18.0 | 0.00 | 0.00 | 0.00 | 51 | 1004.4 |
| 20260504190511 | 78 | 249 | 10.0 | 18.0 | 0.00 | 0.00 | 0.00 | 50 | 1004.4 |
| 20260504190030 | 78 | 266 | 7.0 | 21.0 | 0.00 | 0.00 | 0.00 | 53 | 1004.5 |
| 20260504185509 | 78 | 269 | 10.0 | 21.0 | 0.00 | 0.00 | 0.00 | 51 | 1004.6 |
| 20260504185009 | 78 | 217 | 6.0 | 17.0 | 0.00 | 0.00 | 0.00 | 53 | 1004.5 |
| 20260504184536 | 78 | 225 | 8.0 | 19.0 | 0.00 | 0.00 | 0.00 | 51 | 1004.5 |
| 20260504184009 | 78 | 237 | 8.0 | 19.0 | 0.00 | 0.00 | 0.00 | 52 | 1004.5 |
| 20260504183507 | 78 | 228 | 9.0 | 20.0 | 0.00 | 0.00 | 0.00 | 52 | 1004.5 |
| 20260504183035 | 78 | 270 | 8.0 | 20.0 | 0.00 | 0.00 | 0.00 | 53 | 1004.4 |
| 20260504182509 | 78 | 217 | 2.0 | 12.0 | 0.00 | 0.00 | 0.00 | 53 | 1004.6 |
| 20260504182010 | 78 | 0 | 1.0 | 15.0 | 0.00 | 0.00 | 0.00 | 55 | 1004.6 |
| 20260504181527 | 78 | 210 | 4.0 | 16.0 | 0.00 | 0.00 | 0.00 | 52 | 1004.6 |
| 20260504181010 | 77 | 207 | 6.0 | 16.0 | 0.00 | 0.00 | 0.00 | 54 | 1004.6 |
| 20260504180511 | 77 | 251 | 2.0 | 16.0 | 0.00 | 0.00 | 0.00 | 55 | 1004.6 |
| 20260504180030 | 76 | 0 | 3.0 | 16.0 | 0.00 | 0.00 | 0.00 | 56 | 1004.8 |
| 20260504175511 | 76 | 232 | 2.0 | 10.0 | 0.00 | 0.00 | 0.00 | 56 | 1004.9 |
| 20260504175011 | 74 | 291 | 0.0 | 16.0 | 0.00 | 0.00 | 0.00 | 58 | 1005.0 |
| 20260504174526 | 74 | 263 | 6.0 | 16.0 | 0.00 | 0.00 | 0.00 | 55 | 1004.9 |
| 20260504174008 | 75 | 281 | 7.0 | 16.0 | 0.00 | 0.00 | 0.00 | 54 | 1004.8 |
| 20260504173512 | 75 | 250 | 4.0 | 13.0 | 0.00 | 0.00 | 0.00 | 53 | 1005.0 |
| 20260504173029 | 75 | 0 | 0.0 | 12.0 | 0.00 | 0.00 | 0.00 | 57 | 1005.0 |
| 20260504172512 | 74 | 0 | 0.0 | 12.0 | 0.00 | 0.00 | 0.00 | 54 | 1004.9 |
| 20260504172011 | 73 | 0 | 3.0 | 12.0 | 0.00 | 0.00 | 0.00 | 54 | 1004.9 |
| 20260504171528 | 73 | 238 | 2.0 | 14.0 | 0.00 | 0.00 | 0.00 | 53 | 1004.7 |
| 20260504171011 | 73 | 283 | 7.0 | 23.0 | 0.00 | 0.00 | 0.00 | 52 | 1004.3 |
| 20260504170515 | 74 | 312 | 6.0 | 23.0 | 0.00 | 0.00 | 0.00 | 52 | 1004.6 |
| 20260504151009 | 72 | 234 | 6.0 | 18.0 | 0.00 | 0.00 | 0.00 | 52 | 1005.3 |
| 20260504150510 | 72 | 240 | 9.0 | 18.0 | 0.00 | 0.00 | 0.00 | 51 | 1005.3 |
| 20260504141013 | 69 | 0 | 6.0 | 15.0 | 0.00 | 0.00 | 0.00 | 56 | 1005.9 |
| 20260504140510 | 68 | 240 | 1.0 | 13.0 | 0.00 | 0.00 | 0.00 | 57 | 1006.0 |
| 20260504130509 | 63 | 255 | 2.0 | 11.0 | 0.00 | 0.00 | 0.00 | 61 | 1006.3 |
| 20260504110510 | 63 | 0 | 0.0 | 7.0 | 0.00 | 0.00 | 0.00 | 59 | 1006.5 |
| 20260504100509 | 64 | 0 | 1.0 | 11.0 | 0.00 | 0.00 | 0.00 | 57 | 1006.9 |
| 20260504081530 | 61 | 0 | 0.0 | 0.0 | 0.00 | 0.00 | 0.00 | 64 | 1007.7 |
| 20260504081012 | 62 | 0 | 0.0 | 0.0 | 0.00 | 0.00 | 0.00 | 63 | 1007.7 |
| 20260504080512 | 62 | 0 | 0.0 | 0.0 | 0.00 | 0.00 | 0.00 | 62 | 1007.9 |
| 20260504050510 | 66 | 0 | 0.0 | 3.0 | 0.00 | 0.00 | 0.00 | 57 | 1008.5 |
| 20260504045510 | 66 | 0 | 0.0 | 2.0 | 0.00 | 0.00 | 0.00 | 57 | 1008.6 |
| 20260504045014 | 66 | 0 | 0.0 | 3.0 | 0.00 | 0.00 | 0.00 | 56 | 1008.6 |
| 20260504044528 | 66 | 0 | 0.0 | 3.0 | 0.00 | 0.00 | 0.00 | 56 | 1008.7 |
| 20260504044009 | 66 | 250 | 0.0 | 3.0 | 0.00 | 0.00 | 0.00 | 57 | 1008.7 |
| 20260504043509 | 66 | 0 | 0.0 | 1.0 | 0.00 | 0.00 | 0.00 | 56 | 1008.7 |
| 20260504043042 | 65 | 0 | 0.0 | 0.0 | 0.00 | 0.00 | 0.00 | 56 | 1008.8 |
| 20260504042510 | 65 | 0 | 0.0 | 1.0 | 0.00 | 0.00 | 0.00 | 56 | 1008.9 |
| 20260504042011 | 66 | 0 | 0.0 | 1.0 | 0.00 | 0.00 | 0.00 | 56 | 1008.9 |
| 20260504041534 | 65 | 0 | 0.0 | 1.0 | 0.00 | 0.00 | 0.00 | 57 | 1009.0 |
| 20260504041009 | 65 | 0 | 0.0 | 1.0 | 0.00 | 0.00 | 0.00 | 57 | 1009.0 |
| 20260504040509 | 65 | 0 | 0.0 | 0.0 | 0.00 | 0.00 | 0.00 | 57 | 1009.1 |
| 20260504040028 | 66 | 0 | 0.0 | 0.0 | 0.00 | 0.00 | 0.00 | 57 | 1009.2 |
| 20260504035511 | 66 | 0 | 0.0 | 0.0 | 0.00 | 0.00 | 0.00 | 56 | 1009.2 |
| 20260504035010 | 66 | 0 | 0.0 | 0.0 | 0.00 | 0.00 | 0.00 | 56 | 1009.3 |
| 20260504034530 | 66 | 0 | 0.0 | 0.0 | 0.00 | 0.00 | 0.00 | 56 | 1009.3 |
| 20260504034010 | 66 | 0 | 0.0 | 0.0 | 0.00 | 0.00 | 0.00 | 56 | 1009.4 |
| 20260504033510 | 66 | 0 | 0.0 | 0.0 | 0.00 | 0.00 | 0.00 | 57 | 1009.4 |
| 20260504033029 | 66 | 0 | 0.0 | 0.0 | 0.00 | 0.00 | 0.00 | 57 | 1009.5 |
| 20260504032510 | 67 | 0 | 0.0 | 0.0 | 0.00 | 0.00 | 0.00 | 57 | 1009.5 |
| 20260504032010 | 67 | 0 | 0.0 | 0.0 | 0.00 | 0.00 | 0.00 | 57 | 1009.5 |
| 20260504031530 | 67 | 0 | 0.0 | 0.0 | 0.00 | 0.00 | 0.00 | 57 | 1009.6 |
| 20260504031009 | 67 | 0 | 0.0 | 0.0 | 0.00 | 0.00 | 0.00 | 57 | 1009.6 |
| 20260504030511 | 67 | 0 | 0.0 | 1.0 | 0.00 | 0.00 | 0.00 | 57 | 1009.7 |
| 20260504030036 | 67 | 0 | 0.0 | 1.0 | 0.00 | 0.00 | 0.00 | 56 | 1009.6 |
| 20260504025510 | 67 | 215 | 0.0 | 1.0 | 0.00 | 0.00 | 0.00 | 56 | 1009.7 |